AirNav   ATP
 
 906 users online  

WY39 Star Valley Ranch Airport
Thayne, Wyoming, USA

GOING TO THAYNE?


FAA INFORMATION EFFECTIVE 19 JULY 2018

Location

FAA Identifier: WY39
Lat/Long: 42-58-09.7210N / 110-57-56.7540W
42-58.162017N / 110-57.945900W
42.9693669 / -110.9657650
(estimated)
Elevation: 6210 ft. / 1892.8 m (surveyed)
Variation: 15E (1985)
From city: 3 miles NE of THAYNE, WY
Time zone: UTC -6 (UTC -7 during Standard Time)
Zip code: 83127

Airport Operations

Airport use: CLOSED INDEFINITELY
Activation date: 09/1971
Control tower: no
ARTCC: SALT LAKE CITY CENTER
FSS: CASPER FLIGHT SERVICE STATION
Attendance: UNATNDD
Wind indicator: yes
Segmented circle: no

Airport Communications

WX AWOS-3 at 46U (13 nm N): 119.925 (307-654-2004)
WX AWOS-3P at AFO (16 nm S): 119.025 (307-885-2654)

Airport Services

Airframe service: NONE
Powerplant service: NONE

Runway Information

Runway 15/33

Dimensions: 5400 x 60 ft. / 1646 x 18 m
Surface: gravel
RUNWAY 15  RUNWAY 33
Traffic pattern: leftleft
Obstructions: plinepline
P-LINES BELOW NORMAL GLIDE SLOPE.

Airport Ownership and Management from official FAA records

Ownership: Privately-owned
Owner: STAR VALLEY RANCH ASSOCIATION
1800 CEDAR CREEK DRIVE
STAR VALLEY RANCH, WY 83127
Phone 307-883-2669
Manager: TALLIA BOOKER
1800 CEDAR CREEK DRIVE
STAR VALLEY RANCH, WY 83127
Phone 307-883-2669

Airport Operational Statistics

Aircraft based on the field: 2
Single engine airplanes: 2
    

Additional Remarks

ACFT OFTEN FUEL AT AFTON.
(ARPT STATUS) ARPT CLSD INDEFLY.

Instrument Procedures

There are no published instrument procedures at WY39.

Some nearby airports with instrument procedures:

KAFO - Afton Municipal Airport (16 nm S)
KJAC - Jackson Hole Airport (40 nm N)
KBPI - Miley Memorial Field Airport (44 nm SE)
KDIJ - Driggs-Reed Memorial Airport (47 nm N)
KPNA - Ralph Wenz Field Airport (52 nm E)
 
Loc | Ops | Rwys | IFR | FBO | Links
Com | Nav | Svcs | Stats | Notes


 
Area around WY39 (Star Valley Ranch Airport)
 
Road maps at: MapQuest Bing Google
 
Aerial photo
WARNING: Photo may not be current or correct
Aerial photo of WY39 (Star Valley Ranch Airport)
Do you have a better or more recent aerial photo of Star Valley Ranch Airport that you would like to share? If so, please send us your photo.

 
Sectional chart

 
Airport distance calculator
Flying to Star Valley Ranch Airport? Find the distance to fly.

From to WY39

Sunrise and sunset
Times for 21-Jul-2018
 Local
(UTC-6)
 Zulu
(UTC)
Morning civil twilight05:3111:31
Sunrise06:0512:05
Sunset20:5602:56
Evening civil twilight21:2903:29

Current date and time
Zulu (UTC)  22-Jul-2018 02:07:14
Local (UTC-6)  21-Jul-2018 20:07:14
 
METAR
K46U 
13nm N 
220140Z AUTO 31003KT 10SM CLR 26/16 A3013 RMK A01
KAFO 
16nm S 
220155Z AUTO 28005KT 10SM CLR 24/15 A3018 RMK AO2
TAF
KJAC 
39nm N 
211729Z 2118/2218 VRB06KT P6SM VCSH SCT080 OVC110 FM212100 VRB08G15KT P6SM VCTS SCT070CB BKN120 FM220100 21008KT P6SM SCT120 FM220800 VRB05KT P6SM FEW080 AMD LTD TO CLD VIS AND WIND
KBPI 
45nm SE 
211729Z 2118/2218 VRB06KT P6SM BKN100 FM211900 26012G18KT P6SM VCSH BKN090 FM220100 35009KT P6SM SCT100
KDIJ 
47nm N 
211720Z 2118/2218 15007KT P6SM VCSH FEW040 BKN090 FM211900 23009KT P6SM VCTS FEW050 BKN090CB FM220200 17011KT P6SM FEW080 SCT120 FM220600 13007KT P6SM BKN150 AMD LTD TO CLD VIS AND WIND
NOTAMs
Click for the latest NOTAMs
NOTAMs are issued by the DoD/FAA and will open in a separate window not controlled by AirNav.

 

 
 

Would you like to see your business listed on this page?

 If your business provides an interesting product or service to pilots, flight crews, aircraft, or users of the Star Valley Ranch Airport, you should consider listing it here.  To start the listing process, click on the button below
 
Add a business
 

Other Pages about Star Valley Ranch Airport

Update a link
 
Copyright © AirNav, LLC. All rights reserved. Privacy Policy  Contact